Location: Ch�teauneuf
(44.0573°N, 4.8293°E)
Time: 10:57:19
(UTC+00:00)

Daily predictions for brighter satellites

Satellite Brightness Start Highest point End
(mag) Time Altitude Azimuth Time Altitude Azimuth Time Altitude Azimuth
Radarsat Rocket 4.2 16:25:10 10° SSE 16:31:05 62° ENE 16:37:41 10° N
NOSS 0 Rocket 4.1 16:29:41 10° SSW 16:35:56 81° WNW 16:42:13 10° NNE
Okean O Rocket 2.1 16:31:58 10° SE 16:35:57 37° ENE 16:40:00 10° N
PSLV R/B 4.0 16:32:42 10° SSE 16:36:49 89° ENE 16:40:56 10° NNW
COSMOS 2428 3.9 16:32:10 10° SW 16:37:34 41° WNW 16:43:00 10° NNE
Cosmos 2278 Rocket 2.5 16:32:01 10° NNW 16:37:43 78° WSW 16:43:23 10° SSE
Nadezhda 1 Rocket 4.1 16:33:39 10° S 16:40:00 80° E 16:46:25 10° N
Cosmos 389 Rocket 3.0 16:38:43 10° SSE 16:41:53 36° E 16:45:04 10° NNE
Cosmos 2360 Rocket 4.5 16:41:28 10° WNW 16:44:36 15° NW 16:47:44 10° N
CZ-4B R/B 2.8 16:42:36 10° NE 16:44:49 18° E 16:47:01 10° SE
AQUARIUS 4.4 16:40:38 10° SE 16:44:54 46° ENE 16:49:13 10° N
BREEZE-M DEB (TANK) 2.3 16:44:58 10° W 16:47:13 43° NNW 16:49:13 11° NE
Cosmos 2219 Rocket 3.9 16:45:18 10° WSW 16:50:12 29° NW 16:55:06 10° N
H-2A R/B 2.0 16:50:02 10° NNE 16:54:14 79° ESE 16:58:30 10° S
YAOGAN 6 2.7 16:51:22 10° S 16:55:01 84° WSW 16:58:40 10° NNW
NOAA 6 4.4 16:51:09 10° S 16:56:17 73° WSW 17:01:27 10° NNW
Cosmos 1356 3.5 16:53:33 10° N 16:56:54 50° ENE 17:00:13 10° SSE
Cosmos 962 Rocket 4.5 16:52:35 10° N 16:58:52 65° E 17:05:01 10° SSE
Cosmos 1867 3.6 16:55:36 10° SSW 17:01:00 73° ESE 17:06:27 10° NE
Cosmos 44 3.9 16:56:03 10° NNW 17:01:06 44° NE 17:06:15 10° ESE
Cosmos 2154 Rocket 4.3 16:55:18 10° NNW 17:01:37 75° W 17:07:57 10° S
USA 267 3.9 16:56:38 10° E 17:02:30 37° NNE 17:08:21 10° NW
CZ-4B R/B 3.1 16:57:12 10° SSE 17:02:33 82° ENE 17:07:52 10° NNW
Cosmos 2237 Rocket 2.7 16:58:24 10° SW 17:03:58 62° WNW 17:09:35 10° NNE
Cosmos 1633 Rocket 3.5 16:59:58 10° N 17:04:05 38° ENE 17:08:08 10° SE
CORIOLIS 4.1 16:59:49 10° SSE 17:05:11 73° ENE 17:10:38 10° N
Cosmos 1125 Rocket 4.0 17:00:28 10° NNW 17:05:38 65° WSW 17:10:47 10° S
NOAA 11 4.2 17:00:40 10° SSE 17:05:57 56° ENE 17:11:16 10° N
Lacrosse 5 rocket 1.2 17:06:16 10° SSW 17:09:52 54° SE 17:12:16 18° ENE
Meteor 1-25 Rocket 4.4 17:05:55 10° N 17:11:23 50° ENE 17:16:54 10° SSE
Meteor 2-12 Rocket 4.4 17:07:09 10° N 17:13:20 85° E 17:19:28 10° S
H-2A R/B 3.7 17:10:29 10° S 17:14:38 46° W 17:18:40 10° NNW
Cosmos 2341 Rocket 4.0 17:08:53 10° N 17:15:13 77° E 17:21:33 10° SSE
Cosmos 2369 Rocket 3.2 17:12:03 10° N 17:16:45 26° NE 17:20:02 16° E
USA 281 3.8 17:11:37 10° ESE 17:17:24 35° NE 17:23:13 10° N
Helios 1A Rocket 4.1 17:18:57 20° ENE 17:19:13 21° ENE 17:22:14 10° NNE
CZ-2C R/B 3.8 17:16:22 10° ESE 17:20:31 26° ENE 17:24:33 10° N
BREEZE-M DEB (TANK) 1.5 17:23:13 10° WSW 17:25:48 72° NNW 17:26:19 42° NE
FengYun 1-2 T 4.2 17:22:12 10° SSE 17:27:45 89° ENE 17:33:18 10° NNW
Cosmos 2285 Rocket 4.0 17:21:49 10° NNW 17:28:11 65° ENE 17:34:29 10° SSE
SL-8 Rocket 3.9 17:22:08 10° N 17:28:24 75° E 17:34:39 10° SSE
Cosmos 1943 Rocket 2.3 17:28:36 10° NNW 17:34:00 49° ENE 17:39:24 10° SE
Cosmos 1959 Rocket 4.5 17:29:36 10° N 17:35:59 70° E 17:42:18 10° SSE
YAOGAN 1 3.4 17:36:42 28° ENE 17:36:42 28° ENE 17:40:01 10° N
SAR-Lupe-4 3.8 17:35:11 28° NE 17:36:40 46° E 17:40:08 10° S
CREW DRAGON DEMO-1 DEB 3.0 17:33:53 10° WNW 17:36:51 68° SSW 17:38:11 29° SE
BREEZE-M TANK 4.4 17:34:24 10° W 17:38:46 29° SW 17:41:42 10° SSE
CZ-4 R/B 2.2 17:39:48 30° NE 17:39:48 30° NE 17:42:41 10° N
Cosmos 2181 Rocket 4.0 17:35:30 10° S 17:41:56 89° E 17:48:22 10° N
Cosmos 773 Rocket 3.9 17:36:55 10° S 17:42:08 72° ESE 17:46:28 16° NNE
Cosmos 1470 Rocket 3.5 17:38:18 10° N 17:42:34 55° E 17:46:47 10° SSE
Cosmos 1939 Rocket 2.6 17:41:18 10° SSE 17:45:09 80° ENE 17:49:04 10° N
IRS-1C Rocket 4.0 17:42:21 10° SSE 17:47:35 71° ENE 17:52:51 10° N
Cosmos 2297 3.8 17:42:47 10° NNW 17:48:29 78° WSW 17:54:11 10° SSE
YAOGAN 3 4.5 17:44:16 10° SSE 17:48:38 89° ENE 17:53:01 10° NNW
Cosmos 1515 Rocket 3.6 17:44:57 10° S 17:49:11 52° E 17:51:09 29° NNE
Meteor 1-4 Rocket 2.4 17:46:01 10° S 17:49:37 66° E 17:50:34 44° NE
COSMO-SKYMED 1 2.4 17:47:07 13° NNE 17:50:56 78° ESE 17:55:16 10° S
SAR-Lupe-1 3.9 17:52:40 42° NNE 17:53:46 74° ESE 17:57:20 10° S
SL-16 R/B 2.5 17:48:27 10° SW 17:54:04 68° WNW 17:59:03 14° NNE
USA 81 4.2 17:49:31 10° N 17:54:47 74° W 18:00:03 10° S
FALCON 9 R/B 3.0 17:56:06 10° SSW 17:57:03 13° S 17:57:03 13° S
Cosmos 1151 Rocket 3.5 17:54:21 10° SSW 17:58:35 60° W 18:02:49 10° N
H-2A R/B 2.4 17:59:31 40° E 18:00:00 41° ENE 18:04:50 10° N
NOSS 3-2 (A) 4.4 17:56:18 10° SSE 17:59:43 24° SE 17:59:43 24° SE
SL-24 DEB 4.1 17:56:23 10° N 18:01:09 75° E 18:05:50 10° S
ISS -1.9 18:00:07 10° WNW 18:02:36 22° NNW 18:02:36 22° NNW
ERS-2 3.2 18:00:54 13° N 18:03:55 45° WNW 18:07:25 10° SW
SL-08 R/B 4.3 18:00:05 10° N 18:06:15 73° E 18:12:21 10° SSE
Okean-O 2.5 18:02:01 10° SSE 18:06:24 68° ENE 18:10:49 10° N
BREEZE-M DEB (TANK) 3.7 18:03:34 10° SSW 18:06:02 23° SSE 18:06:02 23° SSE
Meteor 2-6 Rocket 4.3 18:03:11 10° SSE 18:08:35 49° E 18:09:21 46° ENE
X-37B 2.1 18:06:22 10° SW 18:08:23 29° SSW 18:08:23 29° SSW
TIMED 4.5 18:07:38 10° SSW 18:12:00 83° WNW 18:13:09 49° NNE
Cosmos 2263 4.4 18:06:40 10° NNW 18:11:55 45° NE 18:11:55 45° NE
Okean O Rocket 4.2 18:09:03 10° SW 18:12:25 22° W 18:15:48 10° NW
USA 215 3.2 18:09:24 32° NE 18:12:46 83° NW 18:19:19 10° SW
Cosmos 1933 Rocket 3.4 18:08:32 10° N 18:13:02 80° E 18:17:29 10° S
Cosmos 1328 Rocket 4.5 18:09:54 10° SSW 18:14:03 47° WNW 18:18:15 10° N
CZ-4B R/B 3.7 18:15:00 12° NNW 18:17:00 21° WNW 18:19:26 10° WSW
USA 238 DEB 4.4 18:11:33 10° S 18:16:19 31° SE 18:16:19 31° SE
USA 238 4.4 18:11:40 10° S 18:16:23 31° SE 18:16:23 31° SE
Meteor 1-14 Rocket 4.3 18:13:10 10° NNW 18:19:09 84° W 18:25:08 10° S
Cosmos 1782 3.8 18:22:45 10° SSW 18:26:33 45° WNW 18:28:09 29° NNW
CSL-04 Debris 4.0 18:30:38 70° E 18:30:46 71° ENE 18:36:15 10° N
CZ-3B R/B 3.9 18:32:10 10° SW 18:32:52 15° SW 18:32:52 15° SW
Cosmos 1656 Rocket 4.4 18:30:51 10° NNW 18:34:39 39° N 18:34:39 39° N
Cosmos 1538 Rocket 4.4 18:34:43 10° SSW 18:40:02 63° WNW 18:41:40 42° N
USA 267 3.1 18:43:59 66° ESE 18:45:01 83° NE 18:51:35 10° NW
Meteor 1-10 Rocket 4.5 18:40:46 10° S 18:45:10 55° S 18:45:10 55° S
Meteor 1-5 Rocket 4.3 18:42:17 10° NNW 18:48:15 81° W 18:50:44 36° S
Cosmos 1603 3.7 18:43:26 10° SSW 18:48:33 75° SSW 18:48:33 75° SSW
Lacrosse 5 rocket 3.5 18:46:11 10° W 18:47:55 20° WNW 18:47:55 20° WNW
CSL-04 Rocket 4.2 18:52:18 47° NNW 18:52:18 47° NNW 18:56:02 10° NNW
Cosmos 2239 Rocket 4.3 18:45:46 10° N 18:51:57 87° W 18:58:09 10° S
MOS 1 Rocket 4.1 18:53:09 37° NNW 18:55:07 58° WNW 19:00:24 10° SSW
BREEZE-M DEB (TANK) 4.1 18:48:15 10° WSW 18:54:11 49° WSW 18:54:11 49° WSW
Cosmos 1943 3.5 18:51:08 10° SSW 18:55:34 57° SSW 18:55:34 57° SSW
CZ-2C R/B 4.2 18:55:30 10° SSW 19:00:15 39° W 19:04:50 10° NNW
Cosmos 2369 Rocket 2.7 18:55:35 10° NNW 19:01:09 57° WSW 19:01:56 52° SW
USA 281 3.9 18:55:18 10° S 19:01:39 52° WSW 19:08:04 10° NNW
CZ-4 R/B 4.1 19:15:50 16° WNW 19:15:50 16° WNW 19:17:13 10° NW
Cosmos 1943 Rocket 4.2 19:12:57 10° NW 19:17:25 25° WSW 19:21:53 10° SSW
H-2A R/B 4.0 19:40:09 27° W 19:40:09 27° W 19:43:56 10° NW
